星链-30275 (STARLINK-30275 )

导读

STARLINK-30275是美国太空探索技术公司星链星座的卫星,于2023年8月22日发射入轨,归属星链互联网星座组网序列,承担低轨卫星互联网全球覆盖任务,可服务偏远地区通信、移动网络接入等场景,星链星座也因大规模部署,被广泛讨论对天文观测和太空轨道环境的影响。

Basic Information
目录编号:
57667
目录名称:
STARLINK-30275
国际标识:
2023-124E
轨道中心:
EARTH
卫星名称:
星链-30275
卫星全名:
星链-30275 (STARLINK-30275 )
卫星状态:
在轨 (已飞行1031 天)
发射日期:
2023-08-22 UTC
国别 :
美国 (US)
星等 :
--
Orbit Information
数据来源 国际轨道数据
星历时间: 2026-06-18T13:20:54+0800
9小时前
查看轨道信息
半长轴: 6850.75km
偏心率: 0.0001079
轨道倾角: 53.161°
近地点辐角 122.475°
升交点赤经 100.093°
平近点角 237.635°
近地点: 471.873km
远地点: 473.353km
周期: 94.052分钟
每日圈数: 15.310722
Detailed Information
固有亮度:
5
最大亮度:
0.3
卫星平台:
Starlink v2.0 mini
覆盖范围:
全球
运营商:
太空探索技术公司
运营商所在国:
美国
制造商(研发单位):
太空探索技术公司
制造商所在国:
美国
使用方式:
暂无
Satellite Introduction
星链(Starlink)计划是由太空探索技术公司(SpaceX)提出的一个巨型低轨卫星互联网星座项目,计划在2019年至2024年间在太空搭建由约1.2万颗卫星组成的“星链”网络,其中1584颗将部署在地球上空550千米处的近地轨道,并从2020年开始工作。该卫星仍在工作。
2D Orbit Map
3D Orbit Map
Orbit Altitude Analysis Chart
Orbit Inclination Analysis Chart
Orbit Comprehensive Analysis Chart
View Comprehensive Chart